| time (UTC) | temp F | wind direction | speed knots | gust knots | rain 1hr in | rain 24hr in | rain mn in | humidity % | barometer mb |
| 20260504221545 | 81 | 0 | 0.0 | 0.9 | 0.00 | 0.00 | 0.00 | 35 | 1001.5 |
| 20260504220046 | 82 | 0 | 0.0 | 1.7 | 0.00 | 0.00 | 0.00 | 29 | 1001.6 |
| 20260504214551 | 82 | 0 | 0.0 | 0.9 | 0.00 | 0.00 | 0.00 | 30 | 1001.7 |
| 20260504213041 | 83 | 0 | 0.0 | 2.6 | 0.00 | 0.00 | 0.00 | 26 | 1001.6 |
| 20260504211541 | 84 | 97 | 1.7 | 5.2 | 0.00 | 0.00 | 0.00 | 25 | 1001.6 |
| 20260504210058 | 85 | 62 | 1.7 | 3.5 | 0.00 | 0.00 | 0.00 | 24 | 1001.9 |
| 20260504204557 | 85 | 122 | 2.6 | 4.3 | 0.00 | 0.00 | 0.00 | 24 | 1002.1 |
| 20260504203056 | 85 | 88 | 0.9 | 3.5 | 0.00 | 0.00 | 0.00 | 26 | 1002.3 |
| 20260504201542 | 82 | 94 | 1.7 | 5.2 | 0.00 | 0.00 | 0.00 | 25 | 1002.6 |
| 20260504200041 | 84 | 108 | 2.6 | 5.2 | 0.00 | 0.00 | 0.00 | 26 | 1002.9 |
| 20260504194547 | 83 | 66 | 2.6 | 5.2 | 0.00 | 0.00 | 0.00 | 27 | 1003.1 |
| 20260504193044 | 84 | 135 | 1.7 | 5.2 | 0.00 | 0.00 | 0.00 | 28 | 1003.3 |
| 20260504191542 | 83 | 76 | 1.7 | 4.3 | 0.00 | 0.00 | 0.00 | 30 | 1003.5 |
| 20260504190042 | 82 | 39 | 1.7 | 4.3 | 0.00 | 0.00 | 0.00 | 30 | 1003.8 |
| 20260504184541 | 82 | 120 | 2.6 | 5.2 | 0.00 | 0.00 | 0.00 | 28 | 1004.0 |
| 20260504183041 | 82 | 347 | 4.3 | 6.1 | 0.00 | 0.00 | 0.00 | 28 | 1004.0 |
| 20260504181545 | 82 | 94 | 2.6 | 8.7 | 0.00 | 0.00 | 0.00 | 31 | 1004.1 |
| 20260504180044 | 81 | 46 | 4.3 | 7.8 | 0.00 | 0.00 | 0.00 | 29 | 1004.2 |
| 20260504174543 | 80 | 65 | 1.7 | 4.3 | 0.00 | 0.00 | 0.00 | 34 | 1004.3 |
| 20260504173049 | 79 | 25 | 1.7 | 4.3 | 0.00 | 0.00 | 0.00 | 37 | 1004.5 |
| 20260504171542 | 78 | 60 | 0.9 | 5.2 | 0.00 | 0.00 | 0.00 | 38 | 1004.4 |
| 20260504081541 | 58 | 209 | 4.3 | 9.6 | 0.00 | 0.00 | 0.00 | 46 | 1004.2 |
| 20260504044542 | 57 | 0 | 0.0 | 0.9 | 0.00 | 0.00 | 0.00 | 63 | 1006.1 |
| 20260504043043 | 59 | 0 | 0.0 | 0.9 | 0.00 | 0.00 | 0.00 | 59 | 1006.2 |
| 20260504041544 | 62 | 0 | 0.0 | 0.9 | 0.00 | 0.00 | 0.00 | 52 | 1006.3 |
| 20260504040049 | 65 | 335 | 0.0 | 0.9 | 0.00 | 0.00 | 0.00 | 42 | 1006.4 |
| 20260504034552 | 66 | 0 | 0.0 | 0.0 | 0.00 | 0.00 | 0.00 | 36 | 1006.5 |
| 20260504033042 | 68 | 0 | 0.0 | 0.9 | 0.00 | 0.00 | 0.00 | 34 | 1006.5 |
| 20260504031543 | 69 | 0 | 0.0 | 1.7 | 0.00 | 0.00 | 0.00 | 36 | 1006.6 |
| 20260504030042 | 71 | 143 | 0.0 | 0.9 | 0.00 | 0.00 | 0.00 | 31 | 1006.5 |
| 20260504024551 | 72 | 204 | 0.0 | 2.6 | 0.00 | 0.00 | 0.00 | 28 | 1006.5 |
| 20260504023045 | 71 | 0 | 0.0 | 4.3 | 0.00 | 0.00 | 0.00 | 29 | 1006.4 |
| 20260504021546 | 69 | 164 | 0.0 | 2.6 | 0.00 | 0.00 | 0.00 | 33 | 1006.4 |
| 20260504020044 | 68 | 0 | 0.0 | 0.0 | 0.00 | 0.00 | 0.00 | 33 | 1005.8 |
| 20260504014542 | 71 | 0 | 0.0 | 1.7 | 0.00 | 0.00 | 0.00 | 34 | 1005.6 |
| 20260504013055 | 73 | 0 | 0.0 | 0.0 | 0.00 | 0.00 | 0.00 | 27 | 1005.5 |
| 20260504011545 | 76 | 0 | 0.0 | 0.9 | 0.00 | 0.00 | 0.00 | 23 | 1005.5 |
| 20260504010045 | 78 | 174 | 0.9 | 5.2 | 0.00 | 0.00 | 0.00 | 21 | 1005.6 |
| 20260504004543 | 80 | 213 | 1.7 | 6.1 | 0.00 | 0.00 | 0.00 | 19 | 1005.7 |
| 20260504003041 | 80 | 153 | 1.7 | 7.0 | 0.00 | 0.00 | 0.00 | 19 | 1005.9 |
| 20260504001543 | 81 | 171 | 2.6 | 11.3 | 0.00 | 0.00 | 0.00 | 17 | 1005.9 |
| 20260504000048 | 83 | 136 | 4.3 | 11.3 | 0.00 | 0.00 | 0.00 | 17 | 1006.0 |
| 20260503234545 | 84 | 219 | 6.1 | 13.9 | 0.00 | 0.00 | 0.00 | 16 | 1006.1 |
| 20260503233045 | 84 | 186 | 5.2 | 10.4 | 0.00 | 0.00 | 0.00 | 17 | 1006.2 |
| 20260503231542 | 84 | 200 | 7.0 | 13.9 | 0.00 | 0.00 | 0.00 | 17 | 1006.4 |
| 20260503230042 | 83 | 164 | 6.1 | 13.0 | 0.00 | 0.00 | 0.00 | 18 | 1006.5 |
| 20260503224555 | 83 | 191 | 7.0 | 13.9 | 0.00 | 0.00 | 0.00 | 16 | 1006.5 |
| 20260503223045 | 84 | 176 | 7.0 | 12.2 | 0.00 | 0.00 | 0.00 | 15 | 1006.8 |